| time (UTC) | temp C | wind direction | speed KPH | gust KPH | rain 1hr cm | rain 24hr cm | rain mn cm | humidity % | barometer mb |
| 20260504100103 | 2 | 234 | 8.0 | 38.6 | 0.08 | 1.98 | 0.56 | 98 | 982.8 |
| 20260504081556 | 2 | 261 | 3.2 | 12.9 | 0.10 | 1.85 | 0.43 | 100 | 978.0 |
| 20260504044557 | 3 | 0 | 0.0 | 9.7 | 0.05 | 1.52 | 0.10 | 100 | 974.5 |
| 20260504043100 | 3 | 108 | 8.0 | 19.3 | 0.05 | 1.47 | 0.08 | 100 | 974.7 |
| 20260504041557 | 3 | 113 | 11.3 | 24.1 | 0.03 | 1.47 | 0.05 | 99 | 975.1 |
| 20260504040100 | 3 | 124 | 14.5 | 29.0 | 0.05 | 1.47 | 0.05 | 99 | 975.5 |
| 20260504034559 | 3 | 139 | 12.9 | 22.5 | 0.05 | 1.47 | 0.05 | 99 | 976.4 |
| 20260504033059 | 4 | 109 | 14.5 | 29.0 | 0.03 | 1.45 | 0.03 | 98 | 977.1 |
| 20260504031554 | 4 | 54 | 4.8 | 20.9 | 0.03 | 1.45 | 0.03 | 99 | 977.6 |
| 20260504030058 | 4 | 105 | 9.7 | 16.1 | 0.00 | 1.42 | 0.00 | 98 | 978.4 |
| 20260504024558 | 5 | 116 | 8.0 | 22.5 | 0.00 | 1.42 | 1.42 | 99 | 978.9 |
| 20260504023103 | 5 | 0 | 1.6 | 20.9 | 0.00 | 1.42 | 1.42 | 99 | 979.4 |
| 20260504021608 | 4 | 114 | 11.3 | 32.2 | 0.00 | 1.42 | 1.42 | 99 | 980.3 |
| 20260504020134 | 4 | 157 | 12.9 | 29.0 | 0.00 | 1.42 | 1.42 | 99 | 981.0 |
| 20260504014610 | 4 | 108 | 14.5 | 32.2 | 0.03 | 1.42 | 1.42 | 98 | 981.6 |
| 20260504013120 | 5 | 123 | 9.7 | 45.1 | 0.05 | 1.42 | 1.42 | 98 | 982.5 |
| 20260504011604 | 4 | 69 | 12.9 | 46.7 | 0.08 | 1.42 | 1.42 | 98 | 982.6 |
| 20260504004643 | 4 | 74 | 14.5 | 30.6 | 0.08 | 1.40 | 1.40 | 98 | 984.3 |
| 20260504003108 | 5 | 119 | 12.9 | 48.3 | 0.10 | 1.37 | 1.37 | 97 | 985.5 |
| 20260504001623 | 5 | 62 | 9.7 | 27.4 | 0.20 | 1.32 | 1.32 | 98 | 986.1 |
| 20260504000125 | 5 | 0 | 9.7 | 33.8 | 0.30 | 1.32 | 1.32 | 99 | 986.8 |
| 20260503234609 | 4 | 59 | 9.7 | 33.8 | 0.33 | 1.32 | 1.32 | 98 | 987.7 |
| 20260503233112 | 4 | 98 | 14.5 | 30.6 | 0.30 | 1.27 | 1.27 | 98 | 987.8 |
| 20260503231555 | 4 | 113 | 19.3 | 46.7 | 0.23 | 1.14 | 1.14 | 98 | 989.9 |
| 20260503230116 | 3 | 96 | 8.0 | 32.2 | 0.23 | 1.02 | 1.02 | 98 | 990.3 |
| 20260503224606 | 3 | 88 | 8.0 | 25.7 | 0.30 | 0.99 | 0.99 | 98 | 991.3 |
| 20260503223057 | 3 | 96 | 9.7 | 32.2 | 0.36 | 0.97 | 0.97 | 98 | 992.6 |
| 20260503221605 | 3 | 88 | 11.3 | 25.7 | 0.36 | 0.91 | 0.91 | 98 | 993.8 |
| 20260503220058 | 3 | 175 | 16.1 | 41.8 | 0.30 | 0.79 | 0.79 | 98 | 994.6 |
| 20260503214602 | 3 | 117 | 16.1 | 29.0 | 0.28 | 0.66 | 0.66 | 99 | 995.0 |
| 20260503213057 | 3 | 132 | 12.9 | 30.6 | 0.25 | 0.61 | 0.61 | 99 | 994.9 |
| 20260503211555 | 2 | 89 | 12.9 | 38.6 | 0.20 | 0.56 | 0.56 | 99 | 995.2 |
| 20260503210055 | 3 | 111 | 12.9 | 33.8 | 0.18 | 0.48 | 0.48 | 97 | 995.7 |
| 20260503204557 | 3 | 112 | 14.5 | 40.2 | 0.13 | 0.38 | 0.38 | 96 | 996.7 |
| 20260503203113 | 5 | 112 | 14.5 | 33.8 | 0.18 | 0.36 | 0.36 | 97 | 997.0 |
| 20260503201556 | 5 | 92 | 4.8 | 19.3 | 0.20 | 0.36 | 0.36 | 98 | 997.2 |
| 20260503200105 | 5 | 55 | 11.3 | 20.9 | 0.15 | 0.30 | 0.30 | 97 | 997.7 |
| 20260503194557 | 5 | 95 | 6.4 | 20.9 | 0.18 | 0.25 | 0.25 | 97 | 998.8 |
| 20260503193057 | 5 | 80 | 6.4 | 19.3 | 0.18 | 0.18 | 0.18 | 96 | 999.8 |
| 20260503191558 | 5 | 94 | 8.0 | 20.9 | 0.15 | 0.15 | 0.15 | 96 | 1000.4 |
| 20260503190109 | 5 | 95 | 9.7 | 25.7 | 0.15 | 0.15 | 0.15 | 94 | 1001.6 |
| 20260503184602 | 6 | 96 | 11.3 | 24.1 | 0.08 | 0.08 | 0.08 | 90 | 1003.2 |
| 20260503183057 | 6 | 103 | 11.3 | 24.1 | 0.00 | 0.00 | 0.00 | 84 | 1003.5 |
| 20260503181602 | 7 | 116 | 11.3 | 25.7 | 0.00 | 0.00 | 0.00 | 78 | 1004.6 |
| 20260503180058 | 7 | 90 | 3.2 | 19.3 | 0.00 | 0.00 | 0.00 | 76 | 1005.4 |
| 20260503174603 | 8 | 108 | 12.9 | 25.7 | 0.00 | 0.00 | 0.00 | 72 | 1005.9 |
| 20260503173100 | 9 | 0 | 3.2 | 11.3 | 0.00 | 0.00 | 0.00 | 72 | 1006.4 |
| 20260503171604 | 9 | 159 | 3.2 | 11.3 | 0.00 | 0.00 | 0.00 | 69 | 1007.1 |
| 20260503110110 | 2 | 0 | 0.0 | 0.0 | 0.00 | 0.00 | 0.00 | 100 | 1013.7 |